CW4829 Weather Reports


time (UTC)temp
C
wind
direction
speed
KPH
gust
KPH
rain 1hr
cm
rain 24hr
cm
rain mn
cm
humidity
%
barometer
mb
20260508154031 13 217 6.4 11.3 0.00 0.00 0.00 59 1010.1
20260508153551 13 175 3.2 12.9 0.00 0.00 0.00 61 1010.1
20260508153049 12 222 4.8 11.3 0.00 0.00 0.00 62 1010.1
20260508152531 12 180 4.8 9.7 0.00 0.00 0.00 61 1010.2
20260508152057 12 172 4.8 12.9 0.00 0.00 0.00 62 1010.2
20260508150528 11 185 3.2 9.7 0.00 0.00 0.00 62 1010.4
20260508150040 11 177 3.2 12.9 0.00 0.00 0.00 62 1010.4
20260508145552 11 184 3.2 12.9 0.00 0.00 0.00 63 1010.5
20260508144520 11 199 3.2 11.3 0.00 0.00 0.00 62 1010.5
20260508144030 11 196 3.2 11.3 0.00 0.00 0.00 63 1010.4
20260508143556 11 184 4.8 11.3 0.00 0.00 0.00 63 1010.4
20260508143035 11 295 4.8 11.3 0.00 0.00 0.00 63 1010.4
20260508142539 11 214 4.8 11.3 0.00 0.00 0.00 63 1010.6
20260508142107 11 191 3.2 11.3 0.00 0.00 0.00 64 1010.6
20260508141026 11 205 1.6 8.0 0.00 0.00 0.00 64 1010.5
20260508140548 11 190 3.2 9.7 0.00 0.00 0.00 64 1010.5
20260508140051 11 197 3.2 9.7 0.00 0.00 0.00 64 1010.5
20260508135556 11 166 1.6 8.0 0.00 0.00 0.00 65 1010.6
20260508135046 11 222 3.2 8.0 0.00 0.00 0.00 65 1010.6
20260508134022 11 186 4.8 9.7 0.00 0.00 0.00 65 1010.5
20260508133535 11 195 3.2 11.3 0.00 0.00 0.00 65 1010.5
20260508133045 11 209 4.8 11.3 0.00 0.00 0.00 64 1010.5
20260508132045 10 240 4.8 11.3 0.00 0.00 0.00 65 1010.4
20260508131557 10 196 4.8 11.3 0.00 0.00 0.00 66 1010.4
20260508131114 10 184 4.8 11.3 0.00 0.00 0.00 66 1010.3
20260508130556 10 194 4.8 9.7 0.00 0.00 0.00 66 1010.3
20260508130109 10 188 3.2 9.7 0.00 0.00 0.00 67 1010.3
20260508125554 10 225 3.2 9.7 0.00 0.00 0.00 67 1010.3
20260508125039 10 223 1.6 9.7 0.00 0.00 0.00 67 1010.3
20260508124021 10 193 3.2 9.7 0.00 0.00 0.00 68 1010.2
20260508123527 10 215 4.8 9.7 0.00 0.00 0.00 69 1010.2
20260508123044 10 216 1.6 12.9 0.00 0.00 0.00 69 1010.2
20260508122609 9 170 4.8 12.9 0.00 0.00 0.00 70 1010.1
20260508122124 9 161 3.2 9.7 0.00 0.00 0.00 69 1010.1
20260508121025 9 223 3.2 8.0 0.00 0.00 0.00 70 1010.2
20260508120555 9 207 3.2 9.7 0.00 0.00 0.00 71 1010.2
20260508120059 9 187 4.8 11.3 0.00 0.00 0.00 71 1010.2
20260508115034 8 184 3.2 9.7 0.00 0.00 0.00 72 1010.1
20260508114017 8 201 3.2 9.7 0.00 0.00 0.00 73 1010.0
20260508113530 8 174 3.2 11.3 0.00 0.00 0.00 73 1010.0
20260508113102 7 173 4.8 11.3 0.00 0.00 0.00 74 1010.0
20260508112614 7 191 3.2 8.0 0.00 0.00 0.00 74 1010.0
20260508112024 7 192 1.6 6.4 0.00 0.00 0.00 74 1010.0
20260508111544 7 192 1.6 6.4 0.00 0.00 0.00 75 1010.0
20260508111041 7 192 1.6 6.4 0.00 0.00 0.00 75 1009.9
20260508110050 6 192 1.6 4.8 0.00 0.00 0.00 76 1009.9
20260508105553 6 191 1.6 6.4 0.00 0.00 0.00 76 1009.8
20260508105029 6 191 1.6 6.4 0.00 0.00 0.00 76 1009.8
20260508104545 6 191 0.0 0.0 0.00 0.00 0.00 77 1009.8
20260508104043 6 191 0.0 3.2 0.00 0.00 0.00 78 1009.6
20260508103543 5 191 0.0 4.8 0.00 0.00 0.00 80 1009.6
20260508103043 5 191 1.6 4.8 0.00 0.00 0.00 80 1009.6
20260508102031 5 207 1.6 6.4 0.00 0.00 0.00 82 1009.6
20260508101538 5 219 0.0 0.0 0.00 0.00 0.00 81 1009.6
20260508101041 5 219 0.0 0.0 0.00 0.00 0.00 81 1009.5
20260508100550 5 219 0.0 0.0 0.00 0.00 0.00 81 1009.5
20260508100050 5 219 0.0 0.0 0.00 0.00 0.00 81 1009.5
20260508095036 5 219 0.0 1.6 0.00 0.00 0.00 80 1009.6
20260508094548 5 219 0.0 1.6 0.00 0.00 0.00 80 1009.6
20260508094026 5 219 0.0 0.0 0.00 0.00 0.00 80 1009.6
20260508093545 5 219 0.0 0.0 0.00 0.00 0.00 80 1009.6
20260508092525 6 219 0.0 0.0 0.00 0.00 0.00 80 1009.7
20260508092042 6 219 0.0 0.0 0.00 0.00 0.00 79 1009.7
20260508091550 5 219 0.0 1.6 0.00 0.00 0.00 79 1009.7
20260508091039 5 219 0.0 1.6 0.00 0.00 0.00 78 1009.7
20260508090030 6 219 0.0 1.6 0.00 0.00 0.00 78 1009.7
20260508085550 6 219 0.0 0.0 0.00 0.00 0.00 78 1009.6
20260508085056 6 219 0.0 0.0 0.00 0.00 0.00 78 1009.6
20260508084038 6 219 0.0 0.0 0.00 0.00 0.00 79 1009.6
20260508083537 6 219 0.0 0.0 0.00 0.00 0.00 79 1009.6
20260508083051 6 219 0.0 0.0 0.00 0.00 0.00 78 1009.6
20260508082610 6 219 0.0 0.0 0.00 0.00 0.00 78 1009.6
20260508081536 6 219 0.0 0.0 0.00 0.00 0.00 78 1009.6
20260508080520 7 219 0.0 0.0 0.00 0.00 0.00 76 1009.6
20260508080044 7 219 0.0 0.0 0.00 0.00 0.00 76 1009.6
20260508075541 7 219 0.0 1.6 0.00 0.00 0.00 76 1009.7
20260508075046 7 219 0.0 0.0 0.00 0.00 0.00 75 1009.7
20260508074545 7 219 0.0 0.0 0.00 0.00 0.00 75 1009.7
20260508074106 7 219 0.0 0.0 0.00 0.00 0.00 74 1009.7
20260508073608 7 219 0.0 0.0 0.00 0.00 0.00 75 1009.7
20260508073116 8 219 0.0 0.0 0.00 0.00 0.00 74 1009.7
20260508072519 8 219 0.0 0.0 0.00 0.00 0.00 74 1009.9
20260508072041 8 219 0.0 0.0 0.00 0.00 0.00 74 1009.9
20260508071611 8 219 0.0 0.0 0.00 0.00 0.00 74 1009.9
20260508071115 8 219 0.0 0.0 0.00 0.00 0.00 73 1010.1
20260508070521 8 219 0.0 0.0 0.00 0.00 0.00 73 1010.1
20260508070020 8 219 0.0 0.0 0.00 0.00 0.00 73 1010.1
20260508065534 8 219 0.0 1.6 0.00 0.00 0.00 72 1010.1
20260508065108 8 219 0.0 1.6 0.00 0.00 0.00 72 1010.1
20260508064608 9 219 0.0 3.2 0.00 0.00 0.00 71 1010.1
20260508064130 9 219 1.6 3.2 0.00 0.00 0.00 70 1010.2
20260508063519 9 219 0.0 3.2 0.00 0.00 0.00 69 1010.2
20260508063039 9 219 0.0 4.8 0.00 0.00 0.00 68 1010.2
20260508062603 9 238 1.6 4.8 0.00 0.00 0.00 68 1010.6
20260508061525 9 238 1.6 4.8 0.00 0.00 0.00 66 1010.6
20260508061052 9 319 1.6 6.4 0.00 0.00 0.00 66 1011.0
20260508060604 9 313 1.6 8.0 0.00 0.00 0.00 65 1011.0
20260508060033 10 5 4.8 11.3 0.00 0.00 0.00 65 1011.0
20260508055523 10 340 6.4 11.3 0.00 0.00 0.00 64 1011.2
20260508055016 9 295 1.6 11.3 0.00 0.00 0.00 65 1011.2
20260508054540 9 344 3.2 9.7 0.00 0.00 0.00 67 1011.2
20260508054018 8 309 1.6 6.4 0.00 0.00 0.00 67 1010.4
20260508053543 8 306 0.0 0.0 0.00 0.00 0.00 68 1010.4
20260508053045 8 306 0.0 0.0 0.00 0.00 0.00 68 1010.4
20260508052535 8 306 0.0 0.0 0.00 0.00 0.00 68 1010.2
20260508052028 8 306 0.0 0.0 0.00 0.00 0.00 68 1010.2
20260508051602 8 306 0.0 0.0 0.00 0.00 0.00 68 1010.2
20260508051030 8 306 0.0 0.0 0.00 0.00 0.00 68 1010.2
20260508050525 8 306 0.0 0.0 0.00 0.00 0.00 68 1010.2
20260508050049 8 306 0.0 0.0 0.00 0.00 0.00 68 1010.2
20260508045523 8 306 0.0 0.0 0.00 0.00 0.00 68 1010.2
20260508045041 8 306 0.0 0.0 0.00 0.00 0.00 68 1010.2
20260508044604 8 306 0.0 0.0 0.00 0.00 0.00 68 1010.2
20260508044043 8 306 0.0 0.0 0.00 0.00 0.00 67 1010.4
20260508043532 8 306 0.0 0.0 0.00 0.00 0.00 68 1010.4
20260508043027 8 306 0.0 0.0 0.00 0.00 0.00 67 1010.4
20260508042540 9 306 0.0 0.0 0.00 0.00 0.00 68 1010.5
20260508042021 9 306 0.0 0.0 0.00 0.00 0.00 67 1010.5
20260508041550 8 306 0.0 0.0 0.00 0.00 0.00 66 1010.5
20260508041022 8 306 0.0 0.0 0.00 0.00 0.00 66 1010.5
20260508040544 8 306 0.0 0.0 0.00 0.00 0.00 64 1010.5
20260508040050 8 306 0.0 0.0 0.00 0.00 0.00 65 1010.5
20260508035537 9 306 0.0 0.0 0.00 0.00 0.00 64 1010.4
20260508035104 9 306 0.0 0.0 0.00 0.00 0.00 64 1010.4
20260508034615 9 306 0.0 0.0 0.00 0.00 0.00 65 1010.4
20260508034116 9 306 0.0 0.0 0.00 0.00 0.00 64 1010.4
20260508033532 9 306 0.0 0.0 0.00 0.00 0.00 64 1010.4
20260508033107 9 306 0.0 0.0 0.00 0.00 0.00 64 1010.4
20260508032554 8 306 0.0 0.0 0.00 0.00 0.00 63 1010.5
20260508031534 8 306 0.0 0.0 0.00 0.00 0.00 62 1010.5
20260508030529 8 306 0.0 0.0 0.00 0.00 0.00 61 1010.5
20260508030032 8 306 0.0 0.0 0.00 0.00 0.00 61 1010.5
20260508025529 8 306 0.0 0.0 0.00 0.00 0.00 60 1010.4
20260508025042 8 306 0.0 0.0 0.00 0.00 0.00 61 1010.4
20260508024556 8 306 0.0 0.0 0.00 0.00 0.00 61 1010.4
20260508023529 8 306 0.0 0.0 0.00 0.00 0.00 59 1010.4
20260508023039 8 306 0.0 0.0 0.00 0.00 0.00 60 1010.4
20260508022554 8 306 0.0 0.0 0.00 0.00 0.00 60 1010.2
20260508022056 8 306 0.0 0.0 0.00 0.00 0.00 59 1010.2
20260508021621 8 306 0.0 0.0 0.00 0.00 0.00 59 1010.2
20260508021018 8 306 0.0 0.0 0.00 0.00 0.00 58 1010.2
20260508020544 9 306 0.0 0.0 0.00 0.00 0.00 58 1010.2
20260508020026 9 306 0.0 0.0 0.00 0.00 0.00 58 1010.2
20260508015553 9 306 0.0 0.0 0.00 0.00 0.00 59 1010.2
20260508014546 9 306 0.0 0.0 0.00 0.00 0.00 57 1010.2
20260508013525 9 306 0.0 0.0 0.00 0.00 0.00 57 1010.2
20260508013024 10 306 0.0 0.0 0.00 0.00 0.00 55 1010.2
20260508012023 10 306 0.0 0.0 0.00 0.00 0.00 54 1010.1
20260508011542 10 306 0.0 0.0 0.00 0.00 0.00 54 1010.1
20260508010524 10 306 0.0 0.0 0.00 0.00 0.00 51 1010.1
20260508010058 10 306 0.0 0.0 0.00 0.00 0.00 51 1010.1
20260508005022 11 306 0.0 0.0 0.00 0.00 0.00 51 1010.0
20260508004533 11 306 0.0 0.0 0.00 0.00 0.00 51 1010.0
20260508004106 11 306 0.0 0.0 0.00 0.00 0.00 50 1009.9
20260508003056 11 306 0.0 0.0 0.00 0.00 0.00 46 1009.9
20260508002614 12 306 0.0 0.0 0.00 0.00 0.00 46 1009.6
20260508001524 12 306 0.0 0.0 0.00 0.00 0.00 44 1009.6
20260508001054 12 306 0.0 0.0 0.00 0.00 0.00 42 1009.6
20260508000029 12 306 0.0 3.2 0.00 0.00 0.00 40 1009.6
20260507235559 12 306 0.0 4.8 0.00 0.00 0.00 40 1009.6
20260507235058 13 306 1.6 4.8 0.00 0.00 0.00 39 1009.6
20260507234035 13 309 1.6 6.4 0.00 0.00 0.00 39 1009.6
20260507233601 13 300 3.2 6.4 0.00 0.00 0.00 38 1009.6
20260507233112 13 236 1.6 11.3 0.00 0.00 0.00 38 1009.6
20260507232519 13 315 3.2 11.3 0.00 0.00 0.00 39 1009.6
20260507232051 13 317 4.8 11.3 0.00 0.00 0.00 38 1009.6
20260507231526 13 245 4.8 12.9 0.00 0.00 0.00 38 1009.6
20260507231029 13 236 6.4 14.5 0.00 0.00 0.00 37 1009.6
20260507230029 13 275 4.8 16.1 0.00 0.00 0.00 38 1009.6
20260507225553 13 355 4.8 16.1 0.00 0.00 0.00 39 1009.7
20260507224528 13 230 8.0 17.7 0.00 0.00 0.00 39 1009.7
20260507224034 13 259 8.0 17.7 0.00 0.00 0.00 39 1009.9
20260507223547 13 313 4.8 12.9 0.00 0.00 0.00 39 1009.9
20260507223051 13 276 6.4 12.9 0.00 0.00 0.00 40 1009.9
20260507222559 13 229 4.8 12.9 0.00 0.00 0.00 39 1010.0
20260507221538 14 342 4.8 17.7 0.00 0.00 0.00 39 1010.0
20260507221047 14 232 8.0 17.7 0.00 0.00 0.00 38 1010.0
20260507220027 14 17 9.7 20.9 0.00 0.00 0.00 38 1010.0
20260507215531 14 300 8.0 20.9 0.00 0.00 0.00 39 1009.6
20260507215048 14 26 8.0 17.7 0.00 0.00 0.00 40 1009.6
20260507214547 14 18 6.4 14.5 0.00 0.00 0.00 39 1009.6
20260507213532 13 24 8.0 16.1 0.00 0.00 0.00 40 1009.6
20260507213054 13 330 3.2 12.9 0.00 0.00 0.00 41 1009.6
20260507212036 13 14 9.7 17.7 0.00 0.00 0.00 40 1009.6
20260507211558 13 304 8.0 17.7 0.00 0.00 0.00 40 1009.6
20260507210531 13 13 4.8 16.1 0.00 0.00 0.00 42 1009.6
20260507205521 13 339 4.8 17.7 0.00 0.00 0.00 41 1009.6
20260507205040 13 350 8.0 17.7 0.00 0.00 0.00 40 1009.6
20260507204600 13 346 8.0 25.7 0.00 0.00 0.00 40 1009.6
20260507203536 14 301 4.8 17.7 0.00 0.00 0.00 42 1009.6
20260507202527 13 335 6.4 22.5 0.00 0.00 0.00 43 1009.6
20260507202042 13 315 4.8 22.5 0.00 0.00 0.00 43 1009.6
20260507201039 13 325 8.0 24.1 0.00 0.00 0.00 43 1009.6
20260507200034 13 334 9.7 19.3 0.00 0.00 0.00 43 1009.6
20260507195548 13 11 8.0 17.7 0.00 0.00 0.00 44 1009.7
20260507195101 13 236 9.7 20.9 0.00 0.00 0.00 43 1009.7
20260507194611 13 308 11.3 20.9 0.00 0.00 0.00 43 1009.7
20260507193528 13 264 8.0 24.1 0.00 0.00 0.00 44 1009.9
20260507192542 13 211 9.7 19.3 0.00 0.00 0.00 44 1009.9
20260507191523 13 276 8.0 20.9 0.00 0.00 0.00 44 1009.9
20260507191023 13 24 9.7 20.9 0.00 0.00 0.00 44 1010.1
20260507190554 13 303 9.7 19.3 0.00 0.00 0.00 45 1010.1
20260507190111 13 232 6.4 17.7 0.00 0.00 0.00 46 1010.1
20260507185515 13 319 12.9 20.9 0.00 0.00 0.00 43 1010.1
20260507185053 13 5 11.3 22.5 0.00 0.00 0.00 44 1010.1
20260507184028 13 241 6.4 19.3 0.00 0.00 0.00 47 1010.1
20260507183520 13 302 11.3 20.9 0.00 0.00 0.00 47 1010.1
20260507182523 13 301 8.0 22.5 0.00 0.00 0.00 48 1010.1
20260507182058 13 330 9.7 22.5 0.00 0.00 0.00 48 1010.1
20260507181050 13 187 8.0 20.9 0.00 0.00 0.00 47 1010.1
20260507180019 13 303 6.4 12.9 0.00 0.00 0.00 50 1010.1
20260507175542 13 229 6.4 19.3 0.00 0.00 0.00 50 1010.1
20260507175029 13 260 9.7 20.9 0.00 0.00 0.00 50 1010.1
20260507174546 12 350 8.0 20.9 0.00 0.00 0.00 50 1010.1
20260507173025 12 309 6.4 19.3 0.00 0.00 0.00 51 1010.2
20260507172548 12 316 8.0 16.1 0.00 0.00 0.00 51 1010.6
20260507171518 12 254 9.7 22.5 0.00 0.00 0.00 50 1010.6
20260507171021 12 284 9.7 19.3 0.00 0.00 0.00 51 1010.7
20260507170529 12 222 6.4 16.1 0.00 0.00 0.00 51 1010.7
20260507165548 12 321 9.7 17.7 0.00 0.00 0.00 49 1010.8
20260507164534 12 207 4.8 19.3 0.00 0.00 0.00 50 1010.8
20260507164050 12 211 8.0 20.9 0.00 0.00 0.00 50 1010.9
20260507163545 12 209 8.0 16.1 0.00 0.00 0.00 49 1010.9
20260507162533 11 109 6.4 17.7 0.00 0.00 0.00 49 1010.7
20260507162046 11 205 6.4 17.7 0.00 0.00 0.00 49 1010.7
20260507161029 11 268 6.4 16.1 0.00 0.00 0.00 50 1010.6
20260507160536 11 269 6.4 17.7 0.00 0.00 0.00 51 1010.6
20260507155525 11 236 9.7 19.3 0.00 0.00 0.00 50 1010.6
20260507155053 11 258 6.4 16.1 0.00 0.00 0.00 51 1010.6